Location: Caltech
(34.1382°N, 118.1253°W)
Time: 08:40:20
(UTC-08:00)

SL-16 R/B - Visible Passes

Search period start: 01 February 2015 00:00
Search period end: 11 February 2015 00:00
Orbit: 842 x 846 km, 71.0° (Epoch: 01 February)

Date Brightness Start Highest point End Pass type
(mag) Time Alt. Az. Time Alt. Az. Time Alt. Az.
01 Feb 4.5 04:09:42 10° NNE 04:13:42 20° ENE 04:17:52 10° ESE visible
01 Feb 2.4 05:52:41 10° NNW 05:58:11 50° WSW 06:03:36 10° S visible
01 Feb 2.1 18:56:14 10° SSW 19:01:52 75° ESE 19:05:24 24° NNE visible
01 Feb 4.8 20:43:42 10° W 20:46:43 14° NW 20:47:23 14° NW visible
02 Feb 4.5 03:56:09 12° NNE 03:59:28 19° NE 04:03:33 10° ESE visible
02 Feb 2.3 05:38:29 10° NNW 05:44:00 53° WSW 05:49:27 10° S visible
02 Feb 2.1 18:42:04 10° SSW 18:47:41 72° ESE 18:52:53 12° NNE visible
02 Feb 4.8 20:29:19 10° W 20:32:29 15° NW 20:34:51 11° NNW visible
03 Feb 4.5 03:43:16 15° NNE 03:45:15 19° NE 03:49:13 10° E visible
03 Feb 2.3 05:25:13 15° NNW 05:29:48 55° WSW 05:35:18 10° S visible
03 Feb 2.1 18:27:53 10° S 18:33:29 69° ESE 18:39:09 10° NNE visible
03 Feb 4.8 20:14:57 10° W 20:18:16 15° NW 20:21:19 10° NNW visible
04 Feb 4.5 03:30:31 18° NE 03:31:02 18° NE 03:34:53 10° E visible
04 Feb 2.2 05:12:29 26° NW 05:15:37 57° WSW 05:21:09 10° S visible
04 Feb 2.2 18:13:43 10° S 18:19:18 66° ESE 18:24:57 10° NNE visible
04 Feb 4.8 20:00:35 10° W 20:04:02 16° NW 20:07:15 10° NNW visible
05 Feb 4.7 03:17:55 16° ENE 03:17:55 16° ENE 03:20:34 10° E visible
05 Feb 2.1 04:59:53 44° NW 05:01:26 60° WSW 05:06:59 10° S visible
05 Feb 2.2 17:59:33 10° S 18:05:07 63° ESE 18:10:44 10° NNE visible
05 Feb 4.8 19:46:13 10° W 19:49:48 16° NW 19:53:10 10° NNW visible
06 Feb 5.0 03:05:25 12° E 03:05:25 12° E 03:06:13 10° E visible
06 Feb 2.1 04:47:23 62° WSW 04:47:23 62° WSW 04:52:49 10° S visible
06 Feb 2.3 17:45:23 10° S 17:50:56 61° ESE 17:56:32 10° NNE visible
06 Feb 4.7 19:31:53 10° W 19:35:35 17° NW 19:39:04 10° NNW visible
07 Feb 2.9 04:34:57 41° S 04:34:57 41° S 04:38:39 10° S visible
07 Feb 4.7 19:17:32 10° W 19:21:22 18° NW 19:24:58 10° NNW visible
08 Feb 3.8 04:22:32 22° S 04:22:32 22° S 04:24:29 10° S visible
08 Feb 4.7 19:03:13 10° W 19:07:08 18° NW 19:10:52 10° NNW visible
09 Feb 4.6 04:10:06 11° S 04:10:06 11° S 04:10:19 10° S visible
09 Feb 4.7 18:48:54 10° WSW 18:52:55 19° NW 18:56:46 10° NNW visible
10 Feb 4.6 18:34:34 10° WSW 18:38:42 20° NW 18:42:39 10° NNW visible
